Regional Weather Roundup
Issued by NWS

Home | Current Version | Previous Version | Text Only | Print | Product List | Glossary On
Versions: 1 2 3 4 5 6 7 8 9 10 11 12 13 14 15 16 17 18 19 20 21 22 23 24 25 26 27 28 29 30 31 32 33 34 35 36 37 38 39 40 41 42 43 44 45 46 47 48 49 50
874
ASUS44 KLIX 310611
RWRLA
LOUISIANA WEATHER ROUNDUP
NATIONAL WEATHER SERVICE NEW ORLEANS LA
100 AM CDT TUE MAR 31 2015

NOTE: "FAIR" INDICATES FEW OR NO CLOUDS BELOW 12,000 FEET WITH NO
      SIGNIFICANT WEATHER AND/OR OBSTRUCTIONS TO VISIBILITY.
      SKY/WX - SKY CONDITION AND SIGNIFICANT WEATHER.
      TMP - AIR TEMPERATURE.    DP   - DEWPOINT TEMPERATURE.
      RH  - RELATIVE HUMIDITY.  PRES - PRESSURE.
      HX  - HEAT INDEX.         WCI  - WIND CHILL INDEX.

*  THESE STATIONS ARE NOT NWS OR FAA STATIONS AND ARE NOT UNDER
   NWS QUALITY CONTROL.

LAZ040-048-061>063-065-066-069-310700-
SOUTHEAST LOUISIANA

CITY           SKY/WX    TMP DP  RH WIND       PRES   REMARKS
N.O. AUDUBON   NOT AVBL
N.O. INTL ARPT CLEAR     66  61  84 SW6       30.15F
6HR MIN TEMP:  66; 6HR MAX TEMP:  76;

N.O. LAKEFRONT CLEAR     70  63  78 SW7       30.15F
6HR MIN TEMP:  70; 6HR MAX TEMP:  80;

SLIDELL        CLEAR     68  64  87 VRB3      30.14F
6HR MIN TEMP:  68; 6HR MAX TEMP:  78;

BATON ROUGE    CLEAR     66  63  90 SW12      30.14F
6HR MIN TEMP:  66; 6HR MAX TEMP:  76;

BOOTHVILLE     CLEAR     69  66  90 SW6       30.16F
6HR MIN TEMP:  69; 6HR MAX TEMP:  74;

BELLE CHASSE   CLEAR     61  60  97 SW3       30.15F
6HR MIN TEMP:  61; 6HR MAX TEMP:  74;

BOGALUSA*        N/A     66  60  79 W3        30.15S
6HR MIN TEMP:  66; 6HR MAX TEMP:  79;

GALLIANO*      CLEAR     62  62  97 S3        30.16F
6HR MIN TEMP:  62; 6HR MAX TEMP:  75;

NEW ROADS*     FAIR      64  60  86 S7        30.13F
6HR MIN TEMP:  64; 6HR MAX TEMP:  77;

GONZALES*      FAIR      62  62 100 CALM      30.14F
6HR MIN TEMP:  62; 6HR MAX TEMP:  76;

HAMMOND*       CLEAR     66  59  77 SW5       30.16S
HOUMA*         FOG       60  60 100 CALM      30.16F VSB<1/4
6HR MIN TEMP:  60; 6HR MAX TEMP:  74;

PORT FOURCHON* CLEAR     72  68  88 CALM      30.19F

$$

LAZ041-044-053-054-310700-
SOUTHWEST LOUISIANA

CITY           SKY/WX    TMP DP  RH WIND       PRES   REMARKS
LAKE CHARLES   CLEAR     65  63  93 S5        30.12F
6HR MIN TEMP:  64; 6HR MAX TEMP:  73;

LAFAYETTE      CLEAR     62  61  96 S6        30.13F
6HR MIN TEMP:  62; 6HR MAX TEMP:  75;

PATTERSON      CLEAR     61  59  94 CALM      30.17F
6HR MIN TEMP:  61; 6HR MAX TEMP:  73;

SALT POINT       N/A     63  61  93 CALM      30.14F
6HR MIN TEMP:  63; 6HR MAX TEMP:  72;

NEW IBERIA     FOG       60  58  92 S5        30.15F VSB 1/4
6HR MIN TEMP:  60; 6HR MAX TEMP:  75;

CHENAULT AIRPK PTCLDY    60  60 100 S3        30.13S FOG
6HR MIN TEMP:  59; 6HR MAX TEMP:  73;


$$

LAZ027-028-310700-
CENTRAL LOUISIANA

CITY           SKY/WX    TMP DP  RH WIND       PRES   REMARKS
FORT POLK      CLEAR     65  63  93 S6        30.11F
6HR MIN TEMP:  65; 6HR MAX TEMP:  77;

ALEXANDRIA INT CLEAR     66  63  90 SW8       30.10S
6HR MIN TEMP:  66; 6HR MAX TEMP:  78;

ALEXANDRIA     CLEAR     63  60  90 W3        30.12S
6HR MIN TEMP:  63; 6HR MAX TEMP:  77;


$$

LAZ001-002-310700-
NORTHWEST LOUISIANA

CITY           SKY/WX    TMP DP  RH WIND       PRES   REMARKS
SHREVEPORT     CLOUDY    63  60  90 SE7       30.05F
6HR MIN TEMP:  60; 6HR MAX TEMP:  74;

BARKSDALE AFB  PTCLDY    60  60 100 SE6       30.06F
6HR MIN TEMP:  59; 6HR MAX TEMP:  72;

DTN SHREVEPORT PTCLDY    63  59  87 SE7       30.06F
6HR MIN TEMP:  60; 6HR MAX TEMP:  73;


$$

LAZ014-016-310700-
NORTHEAST LOUISIANA

CITY           SKY/WX    TMP DP  RH WIND       PRES   REMARKS
MONROE         CLEAR     61  60  97 CALM      30.09S
6HR MIN TEMP:  60; 6HR MAX TEMP:  75;

TALLULAH       CLEAR     61  57  87 S3        30.09F
6HR MIN TEMP:  57; 6HR MAX TEMP:  72;


$$




USA.gov is the U.S. government's official web portal to all federal, state and local government web resources and services.